| time (UTC) | temp C | wind direction | speed KPH | gust KPH | rain 1hr cm | rain 24hr cm | rain mn cm | humidity % | barometer mb |
| 20260901152604 | 21 | 349 | 3.2 | 6.4 | 0.00 | 0.00 | 0.00 | 69 | 1009.7 |
| 20260901152102 | 21 | 97 | 0.0 | 6.4 | 0.00 | 0.00 | 0.00 | 71 | 1009.7 |
| 20260901151603 | 21 | 205 | 0.0 | 8.0 | 0.00 | 0.00 | 0.00 | 71 | 1009.7 |
| 20260901151101 | 20 | 354 | 1.6 | 9.7 | 0.00 | 0.00 | 0.00 | 70 | 1009.7 |
| 20260901150602 | 20 | 180 | 0.0 | 9.7 | 0.00 | 0.00 | 0.00 | 70 | 1009.7 |
| 20260901145602 | 20 | 23 | 3.2 | 9.7 | 0.00 | 0.00 | 0.00 | 70 | 1009.3 |
| 20260901145101 | 20 | 337 | 0.0 | 9.7 | 0.00 | 0.00 | 0.00 | 71 | 1009.3 |
| 20260901144602 | 21 | 139 | 3.2 | 8.0 | 0.00 | 0.00 | 0.00 | 72 | 1009.7 |
| 20260901144100 | 21 | 120 | 0.0 | 8.0 | 0.00 | 0.00 | 0.00 | 71 | 1009.3 |
| 20260901143601 | 20 | 90 | 0.0 | 9.7 | 0.00 | 0.00 | 0.00 | 70 | 1009.3 |
| 20260901143059 | 20 | 139 | 0.0 | 9.7 | 0.00 | 0.00 | 0.00 | 71 | 1009.3 |
| 20260901142058 | 20 | 140 | 3.2 | 6.4 | 0.00 | 0.00 | 0.00 | 72 | 1009.3 |
| 20260901141600 | 20 | 66 | 1.6 | 8.0 | 0.00 | 0.00 | 0.00 | 72 | 1009.3 |
| 20260901141058 | 20 | 352 | 0.0 | 6.4 | 0.00 | 0.00 | 0.00 | 73 | 1009.0 |
| 20260901140559 | 20 | 203 | 3.2 | 6.4 | 0.00 | 0.00 | 0.00 | 73 | 1009.0 |
| 20260901140057 | 20 | 8 | 4.8 | 4.8 | 0.00 | 0.00 | 0.00 | 74 | 1009.0 |
| 20260901135533 | 19 | 5 | 1.6 | 6.4 | 0.00 | 0.00 | 0.00 | 74 | 1009.0 |
| 20260901135031 | 19 | 133 | 0.0 | 6.4 | 0.00 | 0.00 | 0.00 | 74 | 1009.0 |
| 20260901134532 | 18 | 0 | 0.0 | 6.4 | 0.00 | 0.00 | 0.00 | 76 | 1009.0 |
| 20260901134031 | 18 | 75 | 1.6 | 4.8 | 0.00 | 0.00 | 0.00 | 76 | 1009.0 |
| 20260901133531 | 18 | 20 | 0.0 | 4.8 | 0.00 | 0.00 | 0.00 | 77 | 1009.0 |
| 20260901133030 | 18 | 102 | 0.0 | 4.8 | 0.00 | 0.00 | 0.00 | 79 | 1009.0 |
| 20260901132531 | 17 | 105 | 0.0 | 4.8 | 0.00 | 0.00 | 0.00 | 80 | 1009.0 |
| 20260901132029 | 16 | 0 | 0.0 | 3.2 | 0.00 | 0.00 | 0.00 | 84 | 1008.5 |
| 20260901131529 | 16 | 90 | 0.0 | 3.2 | 0.00 | 0.00 | 0.00 | 85 | 1008.5 |
| 20260901131029 | 15 | 90 | 0.0 | 3.2 | 0.00 | 0.00 | 0.00 | 87 | 1009.0 |
| 20260901130528 | 15 | 99 | 0.0 | 4.8 | 0.00 | 0.00 | 0.00 | 89 | 1008.5 |
| 20260901130029 | 15 | 106 | 0.0 | 4.8 | 0.00 | 0.00 | 0.00 | 88 | 1009.0 |
| 20260901125530 | 14 | 90 | 0.0 | 3.2 | 0.00 | 0.00 | 0.00 | 89 | 1009.0 |
| 20260901124530 | 13 | 344 | 3.2 | 3.2 | 0.00 | 0.00 | 0.00 | 92 | 1009.0 |
| 20260901124028 | 13 | 81 | 0.0 | 3.2 | 0.00 | 0.00 | 0.00 | 93 | 1009.0 |
| 20260901123530 | 13 | 114 | 3.2 | 3.2 | 0.00 | 0.00 | 0.00 | 95 | 1009.3 |
| 20260901123030 | 12 | 82 | 1.6 | 3.2 | 0.00 | 0.00 | 0.00 | 95 | 1009.0 |
| 20260901122530 | 12 | 90 | 0.0 | 3.2 | 0.00 | 0.00 | 0.00 | 95 | 1009.0 |
| 20260901122030 | 12 | 106 | 0.0 | 1.6 | 0.00 | 0.00 | 0.00 | 95 | 1009.0 |
| 20260901121530 | 12 | 90 | 0.0 | 3.2 | 0.00 | 0.00 | 0.00 | 96 | 1009.0 |
| 20260901121029 | 12 | 90 | 0.0 | 3.2 | 0.00 | 0.00 | 0.00 | 96 | 1009.3 |
| 20260901120530 | 12 | 99 | 0.0 | 1.6 | 0.00 | 0.00 | 0.00 | 96 | 1009.0 |
| 20260901115530 | 11 | 99 | 0.0 | 1.6 | 0.00 | 0.00 | 0.00 | 97 | 1008.5 |
| 20260901115029 | 11 | 99 | 0.0 | 3.2 | 0.00 | 0.00 | 0.00 | 97 | 1008.5 |
| 20260901114029 | 11 | 90 | 0.0 | 1.6 | 0.00 | 0.00 | 0.00 | 97 | 1008.5 |
| 20260901113030 | 11 | 90 | 0.0 | 0.0 | 0.00 | 0.00 | 0.00 | 97 | 1008.5 |
| 20260901112530 | 11 | 6 | 0.0 | 1.6 | 0.00 | 0.00 | 0.00 | 97 | 1008.5 |
| 20260901111530 | 11 | 0 | 1.6 | 1.6 | 0.00 | 0.00 | 0.00 | 97 | 1008.5 |
| 20260901111029 | 11 | 15 | 0.0 | 1.6 | 0.00 | 0.00 | 0.00 | 97 | 1008.5 |
| 20260901110530 | 11 | 99 | 0.0 | 0.0 | 0.00 | 0.00 | 0.00 | 96 | 1008.5 |
| 20260901110030 | 11 | 0 | 0.0 | 0.0 | 0.00 | 0.00 | 0.00 | 96 | 1008.5 |
| 20260901105531 | 11 | 0 | 0.0 | 0.0 | 0.00 | 0.00 | 0.00 | 96 | 1008.2 |
| 20260901105029 | 11 | 0 | 0.0 | 1.6 | 0.00 | 0.00 | 0.00 | 96 | 1008.2 |
| 20260901104530 | 11 | 7 | 0.0 | 3.2 | 0.00 | 0.00 | 0.00 | 96 | 1008.2 |
| 20260901104028 | 11 | 0 | 0.0 | 3.2 | 0.00 | 0.00 | 0.00 | 96 | 1008.2 |
| 20260901103531 | 11 | 99 | 0.0 | 1.6 | 0.00 | 0.00 | 0.00 | 96 | 1008.2 |
| 20260901103029 | 11 | 0 | 0.0 | 1.6 | 0.00 | 0.00 | 0.00 | 96 | 1008.2 |
| 20260901102530 | 11 | 15 | 0.0 | 1.6 | 0.00 | 0.00 | 0.00 | 96 | 1008.2 |
| 20260901102029 | 11 | 8 | 0.0 | 1.6 | 0.00 | 0.00 | 0.00 | 95 | 1008.2 |
| 20260901101531 | 12 | 345 | 0.0 | 1.6 | 0.00 | 0.00 | 0.00 | 94 | 1008.2 |
| 20260901101029 | 12 | 0 | 0.0 | 1.6 | 0.00 | 0.00 | 0.00 | 94 | 1008.2 |
| 20260901100530 | 12 | 60 | 0.0 | 1.6 | 0.00 | 0.00 | 0.00 | 94 | 1008.2 |
| 20260901100029 | 12 | 81 | 0.0 | 0.0 | 0.00 | 0.00 | 0.00 | 94 | 1008.5 |
| 20260901095029 | 12 | 8 | 0.0 | 0.0 | 0.00 | 0.00 | 0.00 | 93 | 1008.2 |
| 20260901094528 | 12 | 0 | 0.0 | 0.0 | 0.00 | 0.00 | 0.00 | 93 | 1008.2 |
| 20260901094029 | 12 | 0 | 0.0 | 0.0 | 0.00 | 0.00 | 0.00 | 93 | 1008.2 |
| 20260901093531 | 12 | 0 | 0.0 | 0.0 | 0.00 | 0.00 | 0.00 | 92 | 1008.2 |
| 20260901093029 | 12 | 0 | 0.0 | 0.0 | 0.00 | 0.00 | 0.00 | 92 | 1008.2 |
| 20260901092530 | 12 | 0 | 0.0 | 0.0 | 0.00 | 0.00 | 0.00 | 92 | 1008.2 |
| 20260901092029 | 12 | 0 | 0.0 | 1.6 | 0.00 | 0.00 | 0.00 | 92 | 1007.9 |
| 20260901091530 | 13 | 74 | 1.6 | 1.6 | 0.00 | 0.00 | 0.00 | 91 | 1008.2 |
| 20260901091030 | 13 | 90 | 0.0 | 0.0 | 0.00 | 0.00 | 0.00 | 91 | 1008.2 |
| 20260901090029 | 13 | 90 | 0.0 | 0.0 | 0.00 | 0.00 | 0.00 | 91 | 1008.2 |
| 20260901085029 | 13 | 90 | 0.0 | 0.0 | 0.00 | 0.00 | 0.00 | 90 | 1007.9 |
| 20260901084530 | 13 | 90 | 0.0 | 0.0 | 0.00 | 0.00 | 0.00 | 90 | 1008.2 |
| 20260901084029 | 13 | 99 | 0.0 | 1.6 | 0.00 | 0.00 | 0.00 | 89 | 1008.2 |
| 20260901083530 | 13 | 105 | 0.0 | 1.6 | 0.00 | 0.00 | 0.00 | 89 | 1007.9 |
| 20260901082531 | 13 | 90 | 0.0 | 1.6 | 0.00 | 0.00 | 0.00 | 89 | 1007.9 |
| 20260901082029 | 13 | 90 | 0.0 | 1.6 | 0.00 | 0.00 | 0.00 | 89 | 1007.9 |
| 20260901081530 | 13 | 20 | 0.0 | 1.6 | 0.00 | 0.03 | 0.00 | 89 | 1007.9 |
| 20260901081029 | 13 | 165 | 0.0 | 1.6 | 0.00 | 0.03 | 0.00 | 88 | 1007.9 |
| 20260901080530 | 13 | 165 | 0.0 | 1.6 | 0.00 | 0.03 | 0.00 | 88 | 1007.9 |
| 20260901075530 | 14 | 8 | 0.0 | 1.6 | 0.00 | 0.20 | 0.00 | 87 | 1007.9 |
| 20260901075029 | 14 | 23 | 0.0 | 1.6 | 0.00 | 0.20 | 0.00 | 87 | 1007.9 |
| 20260901074029 | 14 | 81 | 0.0 | 1.6 | 0.00 | 0.20 | 0.00 | 86 | 1008.2 |
| 20260901073530 | 14 | 74 | 0.0 | 1.6 | 0.00 | 0.20 | 0.00 | 86 | 1007.9 |
| 20260901073029 | 14 | 8 | 0.0 | 3.2 | 0.00 | 0.20 | 0.00 | 85 | 1007.9 |
| 20260901072530 | 14 | 74 | 0.0 | 3.2 | 0.00 | 0.20 | 0.00 | 85 | 1008.2 |
| 20260901072028 | 14 | 154 | 0.0 | 3.2 | 0.00 | 0.20 | 0.00 | 85 | 1007.9 |
| 20260901071531 | 15 | 90 | 0.0 | 0.0 | 0.00 | 0.20 | 0.00 | 84 | 1008.2 |
| 20260901071029 | 15 | 0 | 0.0 | 1.6 | 0.00 | 0.20 | 0.00 | 84 | 1008.2 |
| 20260901070029 | 15 | 345 | 0.0 | 1.6 | 0.00 | 0.20 | 0.00 | 82 | 1007.9 |
| 20260901065530 | 15 | 345 | 0.0 | 1.6 | 0.00 | 0.20 | 0.00 | 82 | 1008.2 |
| 20260901065028 | 15 | 90 | 0.0 | 0.0 | 0.00 | 0.20 | 0.00 | 80 | 1008.2 |
| 20260901064531 | 16 | 81 | 0.0 | 0.0 | 0.00 | 0.20 | 0.00 | 79 | 1008.2 |
| 20260901064030 | 16 | 75 | 0.0 | 0.0 | 0.00 | 0.20 | 0.00 | 79 | 1007.9 |
| 20260901063531 | 16 | 75 | 0.0 | 0.0 | 0.00 | 0.20 | 0.00 | 77 | 1008.2 |
| 20260901063029 | 16 | 90 | 0.0 | 1.6 | 0.00 | 0.20 | 0.00 | 76 | 1008.2 |
| 20260901062531 | 16 | 90 | 0.0 | 3.2 | 0.00 | 0.23 | 0.00 | 75 | 1008.2 |
| 20260901062029 | 17 | 84 | 1.6 | 3.2 | 0.00 | 0.61 | 0.00 | 75 | 1007.5 |
| 20260901061530 | 17 | 106 | 0.0 | 3.2 | 0.00 | 0.61 | 0.00 | 77 | 1007.9 |
| 20260901061030 | 17 | 82 | 0.0 | 3.2 | 0.00 | 0.61 | 0.00 | 74 | 1007.5 |
| 20260901060531 | 17 | 90 | 1.6 | 3.2 | 0.00 | 0.61 | 0.00 | 75 | 1007.5 |
| 20260901060028 | 17 | 98 | 0.0 | 3.2 | 0.00 | 0.61 | 0.00 | 76 | 1007.9 |
| 20260901055529 | 17 | 81 | 0.0 | 4.8 | 0.00 | 0.61 | 0.00 | 75 | 1007.5 |
| 20260901054027 | 17 | 121 | 3.2 | 11.3 | 0.00 | 0.61 | 0.00 | 73 | 1007.5 |
| 20260901053528 | 17 | 135 | 3.2 | 11.3 | 0.00 | 0.61 | 0.00 | 75 | 1007.5 |
| 20260901053027 | 17 | 90 | 1.6 | 4.8 | 0.00 | 0.61 | 0.00 | 75 | 1007.2 |
| 20260901052528 | 17 | 90 | 0.0 | 3.2 | 0.00 | 0.61 | 0.00 | 77 | 1007.2 |
| 20260901052026 | 17 | 8 | 0.0 | 4.8 | 0.00 | 0.61 | 0.00 | 76 | 1007.2 |
| 20260901051528 | 17 | 90 | 0.0 | 4.8 | 0.00 | 0.61 | 0.00 | 74 | 1006.9 |
| 20260901051025 | 17 | 157 | 0.0 | 1.6 | 0.00 | 0.61 | 0.00 | 75 | 1007.2 |
| 20260901050526 | 17 | 0 | 0.0 | 1.6 | 0.00 | 0.61 | 0.00 | 74 | 1006.9 |
| 20260901050025 | 17 | 286 | 0.0 | 4.8 | 0.00 | 0.61 | 0.00 | 75 | 1006.9 |
| 20260901045526 | 17 | 7 | 1.6 | 4.8 | 0.00 | 0.61 | 0.61 | 74 | 1006.9 |
| 20260901045024 | 17 | 8 | 0.0 | 3.2 | 0.00 | 0.61 | 0.61 | 73 | 1007.2 |
| 20260901044524 | 17 | 345 | 0.0 | 1.6 | 0.00 | 0.61 | 0.61 | 74 | 1007.2 |
| 20260901044023 | 17 | 111 | 0.0 | 1.6 | 0.00 | 0.61 | 0.61 | 73 | 1006.9 |
| 20260901043524 | 17 | 0 | 0.0 | 3.2 | 0.00 | 0.61 | 0.61 | 73 | 1006.9 |
| 20260901043023 | 18 | 166 | 0.0 | 3.2 | 0.00 | 0.61 | 0.61 | 73 | 1006.9 |
| 20260901042524 | 18 | 98 | 0.0 | 3.2 | 0.00 | 0.61 | 0.61 | 73 | 1007.2 |
| 20260901041524 | 17 | 270 | 0.0 | 4.8 | 0.00 | 0.61 | 0.61 | 73 | 1006.9 |
| 20260901040523 | 17 | 7 | 0.0 | 4.8 | 0.00 | 0.61 | 0.61 | 74 | 1006.9 |
| 20260901034521 | 18 | 7 | 0.0 | 3.2 | 0.00 | 0.61 | 0.61 | 73 | 1006.9 |
| 20260901034020 | 18 | 75 | 0.0 | 3.2 | 0.00 | 0.61 | 0.61 | 73 | 1006.9 |
| 20260901033020 | 18 | 160 | 0.0 | 3.2 | 0.00 | 0.61 | 0.61 | 74 | 1006.9 |
| 20260901032521 | 18 | 15 | 0.0 | 3.2 | 0.00 | 0.61 | 0.61 | 74 | 1006.5 |
| 20260901032019 | 18 | 166 | 0.0 | 3.2 | 0.00 | 0.61 | 0.61 | 74 | 1006.9 |
| 20260901031018 | 18 | 8 | 0.0 | 3.2 | 0.00 | 0.61 | 0.61 | 73 | 1007.2 |
| 20260901030520 | 19 | 165 | 0.0 | 3.2 | 0.00 | 0.61 | 0.61 | 73 | 1006.9 |
| 20260901030018 | 19 | 209 | 0.0 | 3.2 | 0.00 | 0.61 | 0.61 | 72 | 1006.9 |
| 20260901025018 | 20 | 345 | 0.0 | 3.2 | 0.00 | 0.61 | 0.61 | 71 | 1006.9 |
| 20260901024019 | 20 | 345 | 0.0 | 4.8 | 0.00 | 0.61 | 0.61 | 71 | 1006.9 |
| 20260901023516 | 19 | 194 | 0.0 | 3.2 | 0.00 | 0.61 | 0.61 | 71 | 1006.9 |
| 20260901023016 | 19 | 220 | 0.0 | 3.2 | 0.00 | 0.61 | 0.61 | 71 | 1006.9 |
| 20260901022515 | 20 | 8 | 0.0 | 3.2 | 0.00 | 0.61 | 0.61 | 70 | 1006.9 |
| 20260901022015 | 20 | 352 | 0.0 | 3.2 | 0.00 | 0.61 | 0.61 | 71 | 1006.9 |
| 20260901021515 | 20 | 279 | 0.0 | 4.8 | 0.00 | 0.61 | 0.61 | 69 | 1006.9 |
| 20260901021015 | 20 | 270 | 0.0 | 4.8 | 0.00 | 0.61 | 0.61 | 70 | 1006.9 |
| 20260901020516 | 20 | 213 | 3.2 | 3.2 | 0.00 | 0.61 | 0.61 | 69 | 1006.9 |
| 20260901020001 | 20 | 294 | 3.2 | 3.2 | 0.00 | 0.61 | 0.61 | 69 | 1006.9 |
| 20260901015503 | 20 | 261 | 0.0 | 3.2 | 0.00 | 0.61 | 0.61 | 68 | 1006.5 |
| 20260901015001 | 20 | 337 | 0.0 | 3.2 | 0.00 | 0.61 | 0.61 | 68 | 1006.5 |
| 20260901014503 | 20 | 270 | 0.0 | 3.2 | 0.00 | 0.61 | 0.61 | 67 | 1006.5 |
| 20260901014001 | 20 | 307 | 0.0 | 3.2 | 0.00 | 0.61 | 0.61 | 66 | 1006.5 |
| 20260901013502 | 21 | 279 | 0.0 | 3.2 | 0.00 | 0.61 | 0.61 | 66 | 1006.1 |
| 20260901013001 | 21 | 117 | 0.0 | 3.2 | 0.00 | 0.61 | 0.61 | 65 | 1006.5 |
| 20260901012503 | 21 | 294 | 1.6 | 3.2 | 0.00 | 0.61 | 0.61 | 66 | 1006.5 |
| 20260901012001 | 21 | 281 | 0.0 | 3.2 | 0.00 | 0.61 | 0.61 | 64 | 1006.1 |
| 20260901011501 | 21 | 6 | 0.0 | 3.2 | 0.00 | 0.61 | 0.61 | 63 | 1006.1 |
| 20260901011000 | 21 | 254 | 0.0 | 3.2 | 0.00 | 0.61 | 0.61 | 63 | 1006.1 |
| 20260901010501 | 22 | 277 | 0.0 | 3.2 | 0.00 | 0.61 | 0.61 | 62 | 1006.1 |
| 20260901010001 | 22 | 291 | 0.0 | 6.4 | 0.00 | 0.61 | 0.61 | 61 | 1006.1 |
| 20260901005501 | 22 | 270 | 0.0 | 6.4 | 0.00 | 0.61 | 0.61 | 60 | 1006.1 |
| 20260901005002 | 22 | 249 | 0.0 | 3.2 | 0.00 | 0.61 | 0.61 | 59 | 1006.5 |
| 20260901004000 | 23 | 233 | 3.2 | 4.8 | 0.00 | 0.61 | 0.61 | 57 | 1006.1 |
| 20260901003004 | 23 | 90 | 0.0 | 8.0 | 0.00 | 0.61 | 0.61 | 56 | 1006.5 |
| 20260901002001 | 23 | 0 | 0.0 | 8.0 | 0.00 | 0.61 | 0.61 | 55 | 1006.5 |
| 20260901001500 | 24 | 264 | 0.0 | 8.0 | 0.00 | 0.61 | 0.61 | 54 | 1006.1 |
| 20260901000004 | 25 | 270 | 0.0 | 6.4 | 0.00 | 0.61 | 0.61 | 52 | 1006.1 |
| 20260831235501 | 25 | 140 | 0.0 | 6.4 | 0.00 | 0.61 | 0.61 | 52 | 1006.5 |
| 20260831235001 | 25 | 15 | 1.6 | 6.4 | 0.00 | 0.61 | 0.61 | 49 | 1006.5 |
| 20260831234502 | 26 | 107 | 3.2 | 4.8 | 0.00 | 0.61 | 0.61 | 48 | 1006.1 |
| 20260831234001 | 26 | 11 | 3.2 | 8.0 | 0.00 | 0.61 | 0.61 | 48 | 1006.5 |
| 20260831233502 | 26 | 315 | 3.2 | 8.0 | 0.00 | 0.61 | 0.61 | 46 | 1006.5 |
| 20260831233002 | 26 | 23 | 3.2 | 9.7 | 0.00 | 0.61 | 0.61 | 45 | 1006.5 |
| 20260831232503 | 26 | 90 | 0.0 | 9.7 | 0.00 | 0.61 | 0.61 | 46 | 1006.5 |
| 20260831232001 | 26 | 7 | 3.2 | 9.7 | 0.00 | 0.61 | 0.61 | 47 | 1006.5 |
| 20260831231001 | 26 | 145 | 9.7 | 11.3 | 0.00 | 0.61 | 0.61 | 47 | 1006.5 |
| 20260831230503 | 26 | 0 | 0.0 | 9.7 | 0.00 | 0.61 | 0.61 | 46 | 1006.5 |
| 20260831230001 | 26 | 145 | 1.6 | 9.7 | 0.00 | 0.61 | 0.61 | 46 | 1006.9 |
| 20260831225501 | 26 | 57 | 3.2 | 8.0 | 0.00 | 0.61 | 0.61 | 46 | 1006.5 |
| 20260831225001 | 26 | 77 | 0.0 | 8.0 | 0.00 | 0.61 | 0.61 | 45 | 1006.5 |
| 20260831224502 | 27 | 135 | 3.2 | 11.3 | 0.00 | 0.61 | 0.61 | 44 | 1006.5 |
| 20260831223501 | 27 | 348 | 1.6 | 9.7 | 0.00 | 0.61 | 0.61 | 42 | 1006.5 |
| 20260831223006 | 27 | 105 | 0.0 | 8.0 | 0.00 | 0.61 | 0.61 | 42 | 1006.9 |
| 20260831222503 | 27 | 300 | 3.2 | 9.7 | 0.00 | 0.61 | 0.61 | 43 | 1006.1 |
| 20260831222001 | 27 | 349 | 6.4 | 9.7 | 0.00 | 0.61 | 0.61 | 40 | 1006.5 |
| 20260831221502 | 27 | 286 | 0.0 | 8.0 | 0.00 | 0.61 | 0.61 | 42 | 1006.5 |
| 20260831221000 | 27 | 180 | 0.0 | 8.0 | 0.00 | 0.61 | 0.61 | 44 | 1006.1 |
| 20260831220503 | 27 | 173 | 1.6 | 9.7 | 0.00 | 0.61 | 0.61 | 40 | 1006.5 |
| 20260831220002 | 27 | 133 | 4.8 | 14.5 | 0.00 | 0.61 | 0.61 | 42 | 1006.1 |
| 20260831215001 | 27 | 180 | 3.2 | 9.7 | 0.00 | 0.61 | 0.61 | 45 | 1006.5 |
| 20260831214502 | 27 | 51 | 3.2 | 9.7 | 0.00 | 0.61 | 0.61 | 42 | 1006.5 |
| 20260831214001 | 28 | 66 | 0.0 | 6.4 | 0.00 | 0.61 | 0.61 | 43 | 1006.5 |
| 20260831213503 | 28 | 23 | 0.0 | 6.4 | 0.00 | 0.61 | 0.61 | 42 | 1006.1 |
| 20260831212001 | 28 | 220 | 4.8 | 6.4 | 0.00 | 0.61 | 0.61 | 46 | 1006.5 |
| 20260831211502 | 28 | 281 | 3.2 | 6.4 | 0.00 | 0.61 | 0.61 | 45 | 1006.5 |
| 20260831211002 | 27 | 345 | 1.6 | 6.4 | 0.00 | 0.61 | 0.61 | 43 | 1006.9 |
| 20260831210502 | 28 | 7 | 6.4 | 8.0 | 0.00 | 0.61 | 0.61 | 41 | 1006.5 |
| 20260831210001 | 28 | 348 | 1.6 | 8.0 | 0.00 | 0.61 | 0.61 | 43 | 1006.5 |
| 20260831205500 | 28 | 168 | 1.6 | 9.7 | 0.00 | 0.61 | 0.61 | 42 | 1006.9 |
| 20260831205001 | 28 | 99 | 3.2 | 11.3 | 0.00 | 0.61 | 0.61 | 42 | 1006.9 |
| 20260831203502 | 28 | 203 | 0.0 | 6.4 | 0.00 | 0.61 | 0.61 | 50 | 1006.9 |
| 20260831203001 | 27 | 334 | 1.6 | 6.4 | 0.00 | 0.61 | 0.61 | 42 | 1006.9 |
| 20260831202000 | 27 | 0 | 0.0 | 9.7 | 0.00 | 0.61 | 0.61 | 47 | 1006.9 |
| 20260831201001 | 27 | 12 | 1.6 | 8.0 | 0.00 | 0.61 | 0.61 | 49 | 1006.9 |
| 20260831200502 | 28 | 98 | 0.0 | 6.4 | 0.00 | 0.61 | 0.61 | 47 | 1006.9 |
| 20260831200000 | 27 | 68 | 3.2 | 12.9 | 0.00 | 0.61 | 0.61 | 45 | 1006.9 |
| 20260831195501 | 27 | 77 | 1.6 | 12.9 | 0.00 | 0.61 | 0.61 | 46 | 1007.2 |
| 20260831195001 | 27 | 29 | 3.2 | 8.0 | 0.00 | 0.61 | 0.61 | 49 | 1007.2 |
| 20260831194501 | 27 | 105 | 3.2 | 8.0 | 0.00 | 0.61 | 0.61 | 46 | 1007.2 |
| 20260831194001 | 27 | 180 | 1.6 | 6.4 | 0.00 | 0.61 | 0.61 | 46 | 1007.2 |
| 20260831193502 | 27 | 90 | 0.0 | 6.4 | 0.00 | 0.61 | 0.61 | 47 | 1006.9 |
| 20260831193001 | 27 | 213 | 3.2 | 6.4 | 0.00 | 0.61 | 0.61 | 49 | 1006.9 |
| 20260831192001 | 26 | 106 | 1.6 | 6.4 | 0.00 | 0.61 | 0.61 | 48 | 1006.9 |
| 20260831191503 | 26 | 119 | 3.2 | 8.0 | 0.00 | 0.61 | 0.61 | 50 | 1007.2 |
| 20260831191001 | 26 | 98 | 0.0 | 8.0 | 0.00 | 0.61 | 0.61 | 48 | 1006.9 |
| 20260831185502 | 26 | 185 | 0.0 | 6.4 | 0.00 | 0.61 | 0.61 | 52 | 1007.5 |
| 20260831184503 | 26 | 157 | 0.0 | 3.2 | 0.00 | 0.61 | 0.61 | 61 | 1007.2 |
| 20260831184002 | 26 | 173 | 1.6 | 9.7 | 0.00 | 0.61 | 0.61 | 57 | 1007.5 |
| 20260831183502 | 25 | 154 | 1.6 | 9.7 | 0.00 | 0.61 | 0.61 | 56 | 1007.2 |
| 20260831183001 | 25 | 49 | 0.0 | 9.7 | 0.00 | 0.61 | 0.61 | 53 | 1007.2 |
| 20260831182502 | 25 | 346 | 0.0 | 8.0 | 0.00 | 0.61 | 0.61 | 55 | 1007.2 |
| 20260831181501 | 25 | 176 | 0.0 | 11.3 | 0.00 | 0.61 | 0.61 | 62 | 1007.5 |
| 20260831181001 | 25 | 99 | 0.0 | 11.3 | 0.00 | 0.61 | 0.61 | 62 | 1007.5 |
| 20260831180501 | 25 | 127 | 3.2 | 8.0 | 0.00 | 0.61 | 0.61 | 64 | 1007.5 |
| 20260831180000 | 25 | 8 | 3.2 | 14.5 | 0.00 | 0.61 | 0.61 | 60 | 1007.5 |
| 20260831175500 | 24 | 121 | 0.0 | 14.5 | 0.00 | 0.61 | 0.61 | 61 | 1007.5 |
| 20260831175003 | 24 | 166 | 3.2 | 8.0 | 0.00 | 0.61 | 0.61 | 64 | 1007.9 |
| 20260831174502 | 24 | 241 | 0.0 | 6.4 | 0.00 | 0.61 | 0.61 | 66 | 1007.5 |
| 20260831174001 | 24 | 90 | 0.0 | 6.4 | 0.00 | 0.61 | 0.61 | 64 | 1007.5 |
| 20260831173505 | 24 | 75 | 3.2 | 6.4 | 0.00 | 0.61 | 0.61 | 64 | 1007.2 |
| 20260831173000 | 24 | 166 | 1.6 | 6.4 | 0.00 | 0.61 | 0.61 | 66 | 1007.5 |
| 20260831172503 | 23 | 172 | 0.0 | 6.4 | 0.00 | 0.61 | 0.61 | 67 | 1007.5 |
| 20260831172001 | 23 | 165 | 3.2 | 11.3 | 0.00 | 0.61 | 0.61 | 66 | 1007.2 |
| 20260831171500 | 23 | 144 | 3.2 | 11.3 | 0.00 | 0.61 | 0.61 | 67 | 1007.5 |
| 20260831171001 | 23 | 257 | 0.0 | 8.0 | 0.00 | 0.61 | 0.61 | 67 | 1007.5 |
| 20260831170001 | 23 | 194 | 1.6 | 6.4 | 0.00 | 0.61 | 0.61 | 69 | 1007.5 |
| 20260831164503 | 23 | 188 | 3.2 | 6.4 | 0.00 | 0.61 | 0.61 | 70 | 1007.2 |
| 20260831164001 | 23 | 0 | 1.6 | 6.4 | 0.00 | 0.61 | 0.61 | 76 | 1007.2 |
| 20260831163502 | 22 | 166 | 3.2 | 4.8 | 0.00 | 0.61 | 0.61 | 75 | 1007.2 |
| 20260831162503 | 22 | 8 | 0.0 | 4.8 | 0.00 | 0.61 | 0.61 | 77 | 1006.9 |
| 20260831162002 | 22 | 157 | 1.6 | 4.8 | 0.00 | 0.61 | 0.61 | 77 | 1006.9 |
| 20260831161503 | 22 | 342 | 0.0 | 4.8 | 0.00 | 0.61 | 0.61 | 78 | 1006.9 |
| 20260831161001 | 22 | 56 | 3.2 | 6.4 | 0.00 | 0.61 | 0.61 | 83 | 1007.2 |
| 20260831160000 | 21 | 0 | 3.2 | 4.8 | 0.00 | 0.61 | 0.61 | 81 | 1006.9 |
| 20260831155502 | 21 | 97 | 0.0 | 4.8 | 0.00 | 0.61 | 0.61 | 83 | 1006.9 |
| 20260831155001 | 21 | 33 | 0.0 | 4.8 | 0.00 | 0.61 | 0.61 | 83 | 1006.9 |
| 20260831154503 | 21 | 102 | 0.0 | 4.8 | 0.00 | 0.61 | 0.61 | 82 | 1006.5 |
| 20260831154001 | 21 | 81 | 0.0 | 3.2 | 0.00 | 0.61 | 0.61 | 84 | 1006.5 |
| 20260831153502 | 21 | 188 | 0.0 | 3.2 | 0.00 | 0.61 | 0.61 | 84 | 1006.9 |
| 20260831153000 | 21 | 0 | 0.0 | 4.8 | 0.00 | 0.61 | 0.61 | 87 | 1006.9 |